Date String (YYYY-MM-DD hh:mm:ss) UTC,Instrument flags,Ambient pressure (hPa),Sample flow (lpm),Bypass flow (lpm),Sample temperature (°C),Ambient temperature (°C),ASC tube jacket temperature (°C),LED temperature (°C),Box temperature (°C),Sample RH (%),Span deviation,Mass concentration (μg/m³),Mass concentration (μg/m³),Mass concentration (μg/m³)
DateTimeUTC,F1_M11,P_M11,Q1_M11,Q2_M11,T1_M11,T2_M11,T3_M11,T4_M11,T5_M11,U1_M11,ZSPAN_M11,X0_M11,X2_M11,X1_M11
2021-12-31 14:00:00,,0809.3,5.00,0.00,21.9,22.7,00.0,30.8,23.8,11.6,0000.0,0009.81,0002.67,0001.06
2021-12-31 14:01:00,,0809.3,4.99,0.00,21.8,22.3,00.0,30.8,23.6,11.7,0000.0,0010.79,0002.70,0001.05
2021-12-31 14:02:00,,0809.3,5.00,0.00,21.8,22.0,00.0,30.8,23.4,11.8,0000.0,0010.91,0002.79,0001.04
2021-12-31 14:03:00,,0809.3,5.01,0.00,21.7,21.6,00.0,30.8,23.3,11.9,0000.0,0011.17,0002.77,0001.01
2021-12-31 14:04:00,,0809.3,4.99,0.00,21.6,21.3,00.0,30.8,23.2,12.0,0000.0,0011.65,0002.69,0000.99
2021-12-31 14:05:00,,0809.3,5.02,0.00,21.6,21.2,00.0,30.8,23.1,12.2,0000.0,0011.79,0002.54,0000.96
2021-12-31 14:06:00,,0809.4,4.98,0.00,21.6,21.1,00.0,30.7,23.2,12.2,0000.0,0011.28,0002.53,0000.93
2021-12-31 14:07:00,,0809.5,4.99,0.00,21.6,21.1,00.0,30.7,23.2,12.2,0000.0,0011.14,0002.49,0000.92
2021-12-31 14:08:00,,0809.5,5.01,0.00,21.6,21.1,00.0,30.7,23.3,12.2,0000.0,0011.16,0002.52,0000.90
2021-12-31 14:09:00,,0809.6,4.99,0.00,21.6,21.1,00.0,30.7,23.3,12.1,0000.0,0010.69,0002.51,0000.89
2021-12-31 14:10:00,,0809.5,5.00,0.00,21.6,21.1,00.0,30.7,23.4,12.0,0000.0,0011.08,0002.47,0000.87
2021-12-31 14:11:00,,0809.6,5.01,0.00,21.6,21.1,00.0,30.7,23.4,11.9,0000.0,0011.41,0002.40,0000.85
2021-12-31 14:12:00,,0809.5,5.00,0.00,21.7,21.2,00.0,30.7,23.4,11.8,0000.0,0010.24,0002.31,0000.85
2021-12-31 14:13:00,,0809.5,5.00,0.00,21.7,21.1,00.0,30.7,23.3,11.6,0000.0,0009.57,0002.21,0000.87
2021-12-31 14:14:00,,0809.5,5.00,0.00,21.6,21.1,00.0,30.7,23.2,11.4,0000.0,0009.93,0002.28,0000.90
2021-12-31 14:15:00,,0809.5,5.00,0.00,21.6,21.0,00.0,30.7,23.2,11.3,0000.0,0009.03,0002.35,0000.95
2021-12-31 14:16:00,,0809.6,4.99,0.00,21.6,20.9,00.0,30.7,23.1,11.4,0000.0,0008.86,0002.46,0001.00
2021-12-31 14:17:00,,0809.5,4.99,0.00,21.5,20.8,00.0,30.7,23.0,11.3,0000.0,0009.59,0002.47,0001.05
2021-12-31 14:18:00,,0809.6,5.01,0.00,21.4,20.7,00.0,30.7,22.9,11.3,0000.0,0010.19,0002.57,0001.11
2021-12-31 14:19:00,,0809.5,5.00,0.00,21.4,20.6,00.0,30.6,22.8,11.2,0000.0,0010.60,0002.63,0001.16
2021-12-31 14:20:00,,0809.5,5.00,0.00,21.3,20.6,00.0,30.6,22.8,11.1,0000.0,0011.34,0002.68,0001.20
2021-12-31 14:21:00,,0809.6,5.00,0.00,21.4,21.2,00.0,30.6,23.1,10.9,0000.0,0011.39,0002.76,0001.25
2021-12-31 14:22:00,,0809.7,5.00,0.00,21.6,22.1,00.0,30.6,23.4,10.8,0000.0,0011.70,0002.94,0001.31
2021-12-31 14:23:00,,0809.7,4.99,0.00,21.8,22.9,00.0,30.7,23.7,10.6,0000.0,0012.39,0003.12,0001.37
2021-12-31 14:24:00,,0809.7,5.00,0.00,21.9,22.8,00.0,30.7,23.8,10.6,0000.0,0013.09,0003.18,0001.40
2021-12-31 14:25:00,,0809.7,5.03,0.00,21.8,22.4,00.0,30.8,23.6,10.6,0000.0,0012.98,0003.20,0001.44
2021-12-31 14:26:00,,0809.6,4.99,0.00,21.8,22.0,00.0,30.8,23.4,10.7,0000.0,0012.80,0003.22,0001.47
2021-12-31 14:27:00,,0809.7,5.01,0.00,21.7,21.7,00.0,30.8,23.3,10.8,0000.0,0013.32,0003.24,0001.50
2021-12-31 14:28:00,,0809.7,5.00,0.00,21.7,21.4,00.0,30.7,23.2,10.9,0000.0,0013.59,0003.32,0001.53
2021-12-31 14:29:00,,0809.7,4.99,0.00,21.6,21.2,00.0,30.7,23.1,11.1,0000.0,0013.13,0003.32,0001.53
2021-12-31 14:30:00,,0809.9,5.00,0.00,21.5,21.0,00.0,30.7,23.0,11.1,0000.0,0012.99,0003.36,0001.53
2021-12-31 14:31:00,,0809.9,5.01,0.00,21.5,20.9,00.0,30.7,23.0,11.2,0000.0,0012.49,0003.42,0001.54
2021-12-31 14:32:00,,0809.9,5.00,0.00,21.4,20.7,00.0,30.7,22.9,11.2,0000.0,0012.36,0003.46,0001.55
2021-12-31 14:33:00,,0809.9,5.00,0.00,21.4,20.6,00.0,30.6,22.8,11.3,0000.0,0012.69,0003.45,0001.54
2021-12-31 14:34:00,,0809.9,5.00,0.00,21.3,20.5,00.0,30.6,22.7,11.4,0000.0,0012.76,0003.46,0001.53
2021-12-31 14:35:00,,0809.9,5.01,0.00,21.3,20.4,00.0,30.6,22.7,11.4,0000.0,0012.65,0003.48,0001.54
2021-12-31 14:36:00,,0809.9,5.01,0.00,21.2,20.4,00.0,30.5,22.7,11.5,0000.0,0012.69,0003.46,0001.51
2021-12-31 14:37:00,,0809.7,5.00,0.00,21.2,20.4,00.0,30.5,22.6,11.7,0000.0,0013.92,0003.44,0001.49
2021-12-31 14:38:00,,0809.7,5.00,0.00,21.1,20.3,00.0,30.4,22.6,11.7,0000.0,0013.75,0003.40,0001.47
2021-12-31 14:39:00,,0809.7,5.01,0.00,21.2,21.0,00.0,30.5,22.8,11.9,0000.0,0013.45,0003.34,0001.43
2021-12-31 14:40:00,,0809.8,5.00,0.00,21.4,22.0,00.0,30.5,23.2,11.8,0000.0,0014.16,0003.38,0001.42
2021-12-31 14:41:00,,0809.7,5.00,0.00,21.5,22.6,00.0,30.5,23.5,11.7,0000.0,0014.22,0003.32,0001.42
2021-12-31 14:42:00,,0809.7,4.99,0.00,21.6,22.3,00.0,30.6,23.5,11.7,0000.0,0014.10,0003.26,0001.40
2021-12-31 14:43:00,,0809.7,5.00,0.00,21.6,22.0,00.0,30.6,23.3,11.8,0000.0,0013.66,0003.25,0001.38
2021-12-31 14:44:00,,0809.7,5.01,0.00,21.5,21.7,00.0,30.6,23.2,11.9,0000.0,0012.65,0003.23,0001.36
2021-12-31 14:45:00,,0809.8,5.00,0.00,21.5,21.4,00.0,30.6,23.1,12.0,0000.0,0012.67,0003.19,0001.33
2021-12-31 14:46:00,,0810.0,5.00,0.00,21.5,21.3,00.0,30.6,23.0,12.0,0000.0,0012.94,0003.16,0001.30
2021-12-31 14:47:00,,0809.9,4.99,0.00,21.4,21.1,00.0,30.5,23.0,12.1,0000.0,0012.69,0003.11,0001.30
2021-12-31 14:48:00,,0809.9,5.00,0.00,21.4,21.0,00.0,30.5,23.0,12.3,0000.0,0011.53,0003.07,0001.29
2021-12-31 14:49:00,,0809.9,5.00,0.00,21.4,20.9,00.0,30.5,22.9,12.4,0000.0,0011.90,0003.02,0001.25
2021-12-31 14:50:00,,0809.9,5.00,0.00,21.3,20.8,00.0,30.5,22.9,12.5,0000.0,0012.22,0003.03,0001.25
2021-12-31 14:51:00,,0810.0,4.99,0.00,21.3,20.7,00.0,30.5,22.9,12.4,0000.0,0011.33,0002.93,0001.23
2021-12-31 14:52:00,,0809.9,5.01,0.00,21.3,20.7,00.0,30.5,22.9,12.5,0000.0,0011.32,0002.97,0001.22
2021-12-31 14:53:00,,0809.9,4.99,0.00,21.3,20.7,00.0,30.5,22.9,12.6,0000.0,0011.42,0002.92,0001.20
2021-12-31 14:54:00,,0809.9,5.00,0.00,21.3,20.7,00.0,30.4,22.9,12.7,0000.0,0011.82,0002.80,0001.19
2021-12-31 14:55:00,,0810.0,5.00,0.00,21.3,20.6,00.0,30.4,22.9,12.8,0000.0,0012.15,0002.73,0001.18
2021-12-31 14:56:00,,0810.1,5.01,0.00,21.2,20.6,00.0,30.4,22.8,12.8,0000.0,0011.36,0002.65,0001.17
2021-12-31 14:57:00,,0810.1,4.99,0.00,21.2,20.5,00.0,30.4,22.8,12.9,0000.0,0010.62,0002.58,0001.16
2021-12-31 14:58:00,,0810.1,5.01,0.00,21.2,21.1,00.0,30.4,22.9,12.9,0000.0,0010.83,0002.60,0001.14
2021-12-31 14:59:00,,0810.1,5.01,0.00,21.4,22.1,00.0,30.5,23.3,12.8,0000.0,0010.95,0002.63,0001.12
